Location: Felsheim
(48.7267°N, 10.7386°E)
Time: 13:21:56
(UTC+00:00)

Cosmos 1980 Rocket - Visible Passes

Search period start: 06 August 2020 00:00
Search period end: 16 August 2020 00:00
Orbit: 828 x 851 km, 71.0° (Epoch: 05 August)

Date Brightness Start Highest point End Pass type
(mag) Time Alt. Az. Time Alt. Az. Time Alt. Az.
06 Aug 3.6 19:25:46 10° NNW 19:30:33 27° NE 19:35:17 10° ESE visible
06 Aug 2.3 21:09:24 10° NNW 21:15:04 69° WSW 21:17:42 32° S visible
06 Aug 4.5 22:56:30 10° W 22:57:58 11° W 22:59:27 10° WSW visible
07 Aug 2.3 20:53:41 10° NNW 20:59:23 73° WSW 21:02:22 29° SSE visible
07 Aug 4.5 22:40:20 10° WNW 22:42:20 12° W 22:44:09 10° WSW visible
08 Aug 2.3 20:37:58 10° NNW 20:43:41 77° WSW 20:47:05 25° SSE visible
08 Aug 4.4 22:24:18 10° WNW 22:26:40 13° W 22:28:51 10° WSW visible
09 Aug 2.2 20:22:16 10° NNW 20:27:58 81° WSW 20:31:50 21° SSE visible
09 Aug 4.4 22:08:20 10° WNW 22:11:02 14° W 22:13:36 10° SW visible
10 Aug 2.2 20:06:33 10° NNW 20:12:16 85° WSW 20:16:37 18° SSE visible
10 Aug 4.4 21:52:24 10° WNW 21:55:22 15° W 21:58:21 10° SW visible
11 Aug 2.2 19:50:50 10° NNW 19:56:34 89° WSW 20:01:27 14° SSE visible
11 Aug 4.4 21:36:30 10° WNW 21:39:44 16° W 21:42:56 10° SW visible
12 Aug 2.2 19:35:08 10° NNW 19:40:51 86° ENE 19:46:20 11° SSE visible
12 Aug 4.4 21:20:38 10° WNW 21:24:04 17° W 21:27:30 10° SW visible
13 Aug 2.2 19:19:25 10° NNW 19:25:09 82° ENE 19:30:48 10° SSE visible
13 Aug 4.4 21:04:46 10° WNW 21:08:25 18° W 21:12:03 10° SW visible
14 Aug 2.3 19:03:44 10° NNW 19:09:26 78° ENE 19:15:05 10° SSE visible
14 Aug 4.4 20:48:56 10° WNW 20:52:45 19° W 20:56:33 10° SW visible
15 Aug 4.3 20:33:07 10° NW 20:37:06 20° W 20:41:04 10° SW visible
